{"data":{"norad_id":57750,"epoch":"2026-05-24T08:52:55.397568Z","epoch_age_seconds":143534,"freshness":"FRESH","line1":"1 57750U 23131U   26144.37008562  .00001600  00000+0  67665-4 0  9992","line2":"2 57750  43.0047 112.4640 0001818 285.5908  74.4743 15.27576966151399","mean_motion":15.27576966,"eccentricity":0.0001818,"inclination_deg":43.0047,"raan_deg":112.464,"arg_perigee_deg":285.5908,"mean_anomaly_deg":74.4743,"bstar":6.7665e-5,"rev_number":15139,"period_min":94.26693594174,"perigee_km":481.81081565827,"apogee_km":484.30554622606,"semimajor_km":6861.1951809422,"source":"CELESTRAK","updated_at":"2026-05-25T13:38:18.402567Z"}}